Time,TemperatureF,DewpointF,PressureIn,WindDirection,WindDirectionDegrees,WindSpeedMPH,WindSpeedGustMPH,Humidity,HourlyPrecipIn,Conditions,Clouds,dailyrainin,SoftwareType,DateUTC
2013-10-30 00:00:00,71.9,68.5,29.98,SSE,159,9.0,9.0,89,0.00,,,0.00,Wunderground v.1.15,2013-10-30 05:00:00,
2013-10-30 00:10:00,71.8,68.4,29.98,SSE,157,6.0,6.0,89,0.00,,,0.00,Wunderground v.1.15,2013-10-30 05:10:00,
2013-10-30 00:15:00,71.8,68.4,29.97,SSE,153,7.0,7.0,89,0.00,,,0.00,Wunderground v.1.15,2013-10-30 05:15:00,
2013-10-30 00:25:00,71.8,68.4,29.97,SSE,163,10.0,10.0,89,0.00,,,0.00,Wunderground v.1.15,2013-10-30 05:25:00,
2013-10-30 00:30:00,71.8,68.4,29.97,SSE,159,10.0,13.0,89,0.00,,,0.00,Wunderground v.1.15,2013-10-30 05:30:00,
2013-10-30 00:35:00,71.9,68.5,29.97,SSE,153,9.0,13.0,89,0.00,,,0.00,Wunderground v.1.15,2013-10-30 05:35:00,
2013-10-30 00:40:00,71.8,68.4,29.98,South,173,11.0,15.0,89,0.00,,,0.00,Wunderground v.1.15,2013-10-30 05:40:00,
2013-10-30 00:45:00,71.8,68.4,29.97,SSE,163,9.0,15.0,89,0.00,,,0.00,Wunderground v.1.15,2013-10-30 05:45:00,
2013-10-30 00:55:00,71.7,68.3,29.99,SSE,160,11.0,13.0,89,0.00,,,0.00,Wunderground v.1.15,2013-10-30 05:55:00,
2013-10-30 01:00:00,71.7,68.3,29.98,SSE,167,11.0,11.0,89,0.00,,,0.00,Wunderground v.1.15,2013-10-30 06:00:00,
2013-10-30 01:10:00,71.6,68.2,29.99,SSE,157,9.0,15.0,89,0.00,,,0.00,Wunderground v.1.15,2013-10-30 06:10:00,
2013-10-30 01:15:00,71.6,68.2,29.98,South,180,10.0,15.0,89,0.00,,,0.00,Wunderground v.1.15,2013-10-30 06:15:00,
2013-10-30 01:20:00,71.5,68.1,29.98,South,172,9.0,12.0,89,0.00,,,0.00,Wunderground v.1.15,2013-10-30 06:20:00,
2013-10-30 01:25:00,71.4,68.0,29.98,SSE,166,10.0,12.0,89,0.00,,,0.00,Wunderground v.1.15,2013-10-30 06:25:00,
2013-10-30 01:30:00,71.4,68.0,29.98,SSE,168,10.0,14.0,89,0.00,,,0.00,Wunderground v.1.15,2013-10-30 06:30:00,
2013-10-30 01:40:00,71.3,67.9,29.98,SSE,158,10.0,10.0,89,0.00,,,0.00,Wunderground v.1.15,2013-10-30 06:40:00,
2013-10-30 01:45:00,71.2,67.8,29.98,SSE,165,9.0,10.0,89,0.00,,,0.00,Wunderground v.1.15,2013-10-30 06:45:00,
2013-10-30 01:50:00,71.2,67.8,29.97,South,181,7.0,7.0,89,0.00,,,0.00,Wunderground v.1.15,2013-10-30 06:50:00,
2013-10-30 02:00:00,71.2,67.8,29.96,SSE,152,8.0,11.0,89,0.00,,,0.00,Wunderground v.1.15,2013-10-30 07:00:00,
2013-10-30 02:10:00,71.2,67.8,29.96,SSE,167,8.0,11.0,89,0.00,,,0.00,Wunderground v.1.15,2013-10-30 07:10:00,
2013-10-30 02:15:00,71.1,67.7,29.96,SSE,150,9.0,11.0,89,0.00,,,0.00,Wunderground v.1.15,2013-10-30 07:15:00,
2013-10-30 02:20:00,71.1,67.7,29.96,SSE,167,9.0,9.0,89,0.00,,,0.00,Wunderground v.1.15,2013-10-30 07:20:00,
2013-10-30 02:25:00,71.1,67.7,29.97,South,174,9.0,12.0,89,0.00,,,0.00,Wunderground v.1.15,2013-10-30 07:25:00,
2013-10-30 02:30:00,71.1,67.7,29.97,South,176,9.0,9.0,89,0.00,,,0.00,Wunderground v.1.15,2013-10-30 07:30:00,
2013-10-30 02:35:00,71.0,67.6,29.97,South,171,8.0,13.0,89,0.00,,,0.00,Wunderground v.1.15,2013-10-30 07:35:00,
2013-10-30 02:45:00,71.1,67.7,29.97,South,171,7.0,8.0,89,0.00,,,0.00,Wunderground v.1.15,2013-10-30 07:45:00,
2013-10-30 02:50:00,71.1,67.7,29.97,SE,128,8.0,9.0,89,0.00,,,0.00,Wunderground v.1.15,2013-10-30 07:50:00,
2013-10-30 02:55:00,71.2,67.8,29.97,South,170,8.0,9.0,89,0.00,,,0.00,Wunderground v.1.15,2013-10-30 07:55:00,
2013-10-30 03:00:00,71.2,67.8,29.97,South,177,8.0,8.0,89,0.00,,,0.00,Wunderground v.1.15,2013-10-30 08:00:00,
2013-10-30 03:10:00,71.2,67.8,29.97,SSE,161,8.0,10.0,89,0.00,,,0.00,Wunderground v.1.15,2013-10-30 08:10:00,
2013-10-30 03:15:00,71.2,68.1,29.97,South,176,6.0,10.0,90,0.00,,,0.00,Wunderground v.1.15,2013-10-30 08:15:00,
2013-10-30 03:25:00,71.1,68.0,29.96,South,170,3.0,6.0,90,0.00,,,0.00,Wunderground v.1.15,2013-10-30 08:25:00,
2013-10-30 03:30:00,71.0,67.9,29.96,SSE,157,4.0,7.0,90,0.00,,,0.00,Wunderground v.1.15,2013-10-30 08:30:00,
2013-10-30 03:35:00,71.0,67.9,29.96,South,169,4.0,7.0,90,0.00,,,0.00,Wunderground v.1.15,2013-10-30 08:35:00,
2013-10-30 03:40:00,70.9,67.8,29.95,SSE,167,5.0,6.0,90,0.00,,,0.00,Wunderground v.1.15,2013-10-30 08:40:00,
2013-10-30 03:45:00,70.9,67.8,29.95,SSE,151,5.0,6.0,90,0.00,,,0.00,Wunderground v.1.15,2013-10-30 08:45:00,
2013-10-30 03:55:00,70.7,67.9,29.95,SSE,160,6.0,9.0,91,0.00,,,0.00,Wunderground v.1.15,2013-10-30 08:55:00,
2013-10-30 04:00:00,70.6,67.8,29.94,SE,142,8.0,11.0,91,0.00,,,0.00,Wunderground v.1.15,2013-10-30 09:00:00,
2013-10-30 04:10:00,70.4,67.6,29.95,SSE,152,8.0,8.0,91,0.00,,,0.00,Wunderground v.1.15,2013-10-30 09:10:00,
2013-10-30 04:15:00,70.3,67.9,29.94,SSE,150,6.0,8.0,92,0.00,,,0.00,Wunderground v.1.15,2013-10-30 09:15:00,
2013-10-30 04:20:00,70.3,67.9,29.94,SSE,158,7.0,9.0,92,0.00,,,0.00,Wunderground v.1.15,2013-10-30 09:20:00,
2013-10-30 04:25:00,70.2,67.8,29.94,SSE,167,6.0,9.0,92,0.00,,,0.00,Wunderground v.1.15,2013-10-30 09:25:00,
2013-10-30 04:30:00,70.2,67.8,29.94,SSE,162,5.0,14.0,92,0.00,,,0.00,Wunderground v.1.15,2013-10-30 09:30:00,
2013-10-30 04:40:00,70.3,67.9,29.95,South,189,5.0,7.0,92,0.00,,,0.00,Wunderground v.1.15,2013-10-30 09:40:00,
2013-10-30 04:45:00,70.4,68.0,29.95,South,178,5.0,9.0,92,0.00,,,0.00,Wunderground v.1.15,2013-10-30 09:45:00,
2013-10-30 04:50:00,70.4,68.0,29.95,South,180,6.0,6.0,92,0.00,,,0.00,Wunderground v.1.15,2013-10-30 09:50:00,
2013-10-30 04:55:00,70.6,68.2,29.95,SSE,150,5.0,10.0,92,0.00,,,0.00,Wunderground v.1.15,2013-10-30 09:55:00,
2013-10-30 05:00:00,70.6,68.2,29.94,SE,142,5.0,9.0,92,0.00,,,0.00,Wunderground v.1.15,2013-10-30 10:00:00,
2013-10-30 05:10:00,70.7,68.3,29.95,SSW,196,5.0,9.0,92,0.00,,,0.00,Wunderground v.1.15,2013-10-30 10:10:00,
2013-10-30 05:20:00,70.8,68.4,29.95,South,176,8.0,8.0,92,0.00,,,0.00,Wunderground v.1.15,2013-10-30 10:20:00,
2013-10-30 05:25:00,70.9,68.5,29.95,SSE,150,7.0,8.0,92,0.00,,,0.01,Wunderground v.1.15,2013-10-30 10:25:00,
2013-10-30 05:30:00,70.8,68.4,29.94,South,188,6.0,6.0,92,0.00,,,0.01,Wunderground v.1.15,2013-10-30 10:30:00,
2013-10-30 05:35:00,70.7,68.3,29.94,SSE,148,5.0,8.0,92,0.00,,,0.01,Wunderground v.1.15,2013-10-30 10:35:00,
2013-10-30 05:40:00,70.6,68.2,29.94,South,186,6.0,9.0,92,0.00,,,0.01,Wunderground v.1.15,2013-10-30 10:40:00,
2013-10-30 05:50:00,70.6,68.2,29.94,SSW,202,7.0,8.0,92,0.00,,,0.02,Wunderground v.1.15,2013-10-30 10:50:00,
2013-10-30 05:55:00,70.6,68.5,29.94,South,185,8.0,10.0,93,0.00,,,0.02,Wunderground v.1.15,2013-10-30 10:55:00,
2013-10-30 06:00:00,70.6,68.5,29.94,SSE,167,7.0,7.0,93,0.00,,,0.02,Wunderground v.1.15,2013-10-30 11:00:00,
2013-10-30 06:10:00,70.4,68.3,29.93,SE,142,5.0,7.0,93,0.00,,,0.02,Wunderground v.1.15,2013-10-30 11:10:00,
2013-10-30 06:15:00,70.4,68.3,29.93,SE,146,6.0,7.0,93,0.00,,,0.02,Wunderground v.1.15,2013-10-30 11:15:00,
2013-10-30 06:20:00,70.4,68.3,29.93,SE,143,4.0,4.0,93,0.00,,,0.02,Wunderground v.1.15,2013-10-30 11:20:00,
2013-10-30 06:30:00,70.4,68.3,29.92,SSE,155,3.0,3.0,93,0.00,,,0.02,Wunderground v.1.15,2013-10-30 11:30:00,
2013-10-30 06:35:00,70.4,68.3,29.92,SSE,157,4.0,4.0,93,0.00,,,0.02,Wunderground v.1.15,2013-10-30 11:35:00,
2013-10-30 06:40:00,70.4,68.6,29.92,SSE,151,5.0,5.0,94,0.00,,,0.02,Wunderground v.1.15,2013-10-30 11:40:00,
2013-10-30 06:45:00,70.4,68.6,29.92,SSE,149,3.0,5.0,94,0.00,,,0.02,Wunderground v.1.15,2013-10-30 11:45:00,
2013-10-30 06:50:00,70.4,68.6,29.92,SSE,153,1.0,1.0,94,0.00,,,0.02,Wunderground v.1.15,2013-10-30 11:50:00,
2013-10-30 07:00:00,70.4,68.6,29.92,SE,146,1.0,1.0,94,0.00,,,0.02,Wunderground v.1.15,2013-10-30 12:00:00,
2013-10-30 07:10:00,70.4,68.6,29.93,SSE,160,4.0,6.0,94,0.00,,,0.02,Wunderground v.1.15,2013-10-30 12:10:00,
2013-10-30 07:15:00,70.4,68.6,29.93,SSE,161,5.0,6.0,94,0.00,,,0.02,Wunderground v.1.15,2013-10-30 12:15:00,
2013-10-30 07:20:00,70.4,68.6,29.94,SSE,165,4.0,4.0,94,0.00,,,0.02,Wunderground v.1.15,2013-10-30 12:20:00,
2013-10-30 07:25:00,70.4,68.6,29.93,SSE,162,3.0,9.0,94,0.00,,,0.02,Wunderground v.1.15,2013-10-30 12:25:00,
2013-10-30 07:30:00,70.4,68.6,29.93,SSE,166,5.0,5.0,94,0.00,,,0.02,Wunderground v.1.15,2013-10-30 12:30:00,
2013-10-30 07:35:00,70.4,68.6,29.93,SSE,157,7.0,9.0,94,0.00,,,0.02,Wunderground v.1.15,2013-10-30 12:35:00,
2013-10-30 07:45:00,70.4,68.6,29.93,SSE,155,8.0,8.0,94,0.14,,,0.05,Wunderground v.1.15,2013-10-30 12:45:00,
2013-10-30 07:50:00,70.4,68.6,29.93,SE,144,8.0,8.0,94,0.06,,,0.05,Wunderground v.1.15,2013-10-30 12:50:00,
2013-10-30 07:55:00,70.4,68.6,29.93,South,172,6.0,8.0,94,0.04,,,0.05,Wunderground v.1.15,2013-10-30 12:55:00,
2013-10-30 08:00:00,70.3,68.5,29.93,SSE,155,7.0,9.0,94,0.04,,,0.06,Wunderground v.1.15,2013-10-30 13:00:00,
2013-10-30 08:10:00,70.3,68.5,29.93,SSE,152,8.0,8.0,94,0.04,,,0.06,Wunderground v.1.15,2013-10-30 13:10:00,
2013-10-30 08:15:00,70.3,68.8,29.92,SSE,151,7.0,9.0,95,0.00,,,0.06,Wunderground v.1.15,2013-10-30 13:15:00,
2013-10-30 08:20:00,70.3,68.8,29.92,SE,145,5.0,11.0,95,0.00,,,0.06,Wunderground v.1.15,2013-10-30 13:20:00,
2013-10-30 08:25:00,70.4,68.9,29.93,SSE,155,6.0,13.0,95,0.00,,,0.06,Wunderground v.1.15,2013-10-30 13:25:00,
2013-10-30 08:35:00,70.4,68.9,29.92,SSE,158,6.0,13.0,95,0.00,,,0.06,Wunderground v.1.15,2013-10-30 13:35:00,
2013-10-30 08:40:00,70.4,68.9,29.92,SE,138,7.0,8.0,95,0.00,,,0.06,Wunderground v.1.15,2013-10-30 13:40:00,
2013-10-30 08:45:00,70.4,68.9,29.93,SSE,150,9.0,12.0,95,0.00,,,0.06,Wunderground v.1.15,2013-10-30 13:45:00,
2013-10-30 08:55:00,70.6,69.1,29.93,SE,146,9.0,9.0,95,0.00,,,0.06,Wunderground v.1.15,2013-10-30 13:55:00,
2013-10-30 09:00:00,70.5,69.0,29.93,SSE,147,9.0,10.0,95,0.00,,,0.06,Wunderground v.1.15,2013-10-30 14:00:00,
2013-10-30 09:10:00,70.4,68.9,29.93,SSE,157,10.0,15.0,95,0.00,,,0.06,Wunderground v.1.15,2013-10-30 14:10:00,
2013-10-30 09:15:00,70.6,69.1,29.93,SSE,155,10.0,15.0,95,0.00,,,0.06,Wunderground v.1.15,2013-10-30 14:15:00,
2013-10-30 09:20:00,70.6,69.1,29.93,SSE,155,10.0,10.0,95,0.00,,,0.06,Wunderground v.1.15,2013-10-30 14:20:00,
2013-10-30 09:25:00,70.6,69.1,29.93,SE,144,10.0,10.0,95,0.00,,,0.06,Wunderground v.1.15,2013-10-30 14:25:00,
2013-10-30 09:30:00,70.6,69.1,29.93,SSE,158,11.0,11.0,95,0.00,,,0.06,Wunderground v.1.15,2013-10-30 14:30:00,
2013-10-30 09:40:00,70.7,69.2,29.92,SSE,149,11.0,11.0,95,0.00,,,0.06,Wunderground v.1.15,2013-10-30 14:40:00,
2013-10-30 09:45:00,70.7,69.2,29.92,SE,138,11.0,11.0,95,0.00,,,0.06,Wunderground v.1.15,2013-10-30 14:45:00,
2013-10-30 09:50:00,70.8,69.3,29.92,SSE,166,11.0,14.0,95,0.00,,,0.06,Wunderground v.1.15,2013-10-30 14:50:00,
2013-10-30 09:55:00,70.8,69.3,29.92,SE,138,12.0,14.0,95,0.00,,,0.06,Wunderground v.1.15,2013-10-30 14:55:00,
2013-10-30 10:00:00,70.9,69.4,29.92,SE,139,13.0,13.0,95,0.00,,,0.06,Wunderground v.1.15,2013-10-30 15:00:00,
2013-10-30 10:10:00,71.0,69.2,29.93,ESE,123,13.0,13.0,94,0.00,,,0.06,Wunderground v.1.15,2013-10-30 15:10:00,
2013-10-30 10:15:00,71.1,69.3,29.94,South,177,13.0,13.0,94,0.00,,,0.06,Wunderground v.1.15,2013-10-30 15:15:00,
2013-10-30 10:25:00,71.1,69.0,29.94,SE,133,11.0,12.0,93,0.00,,,0.06,Wunderground v.1.15,2013-10-30 15:25:00,
2013-10-30 10:30:00,71.0,68.9,29.93,SE,140,11.0,14.0,93,0.00,,,0.06,Wunderground v.1.15,2013-10-30 15:30:00,
2013-10-30 10:35:00,71.0,68.9,29.94,SE,135,12.0,14.0,93,0.00,,,0.06,Wunderground v.1.15,2013-10-30 15:35:00,
2013-10-30 10:40:00,71.0,68.9,29.94,SE,138,11.0,13.0,93,0.00,,,0.06,Wunderground v.1.15,2013-10-30 15:40:00,
2013-10-30 10:50:00,71.0,68.9,29.94,SE,138,11.0,11.0,93,0.00,,,0.06,Wunderground v.1.15,2013-10-30 15:50:00,
2013-10-30 10:55:00,70.9,68.8,29.93,SSE,161,12.0,12.0,93,0.00,,,0.06,Wunderground v.1.15,2013-10-30 15:55:00,
2013-10-30 11:00:00,71.0,68.9,29.93,SSE,167,13.0,14.0,93,0.00,,,0.06,Wunderground v.1.15,2013-10-30 16:00:00,
2013-10-30 11:10:00,71.2,68.8,29.93,SSE,152,11.0,12.0,92,0.00,,,0.06,Wunderground v.1.15,2013-10-30 16:10:00,
2013-10-30 11:15:00,71.2,68.8,29.94,SE,136,12.0,18.0,92,0.00,,,0.06,Wunderground v.1.15,2013-10-30 16:15:00,
2013-10-30 11:20:00,71.3,68.9,29.94,SE,146,11.0,12.0,92,0.00,,,0.06,Wunderground v.1.15,2013-10-30 16:20:00,
2013-10-30 11:25:00,71.3,68.9,29.94,SSE,147,10.0,12.0,92,0.00,,,0.06,Wunderground v.1.15,2013-10-30 16:25:00,
2013-10-30 11:30:00,71.1,68.7,29.94,ESE,123,11.0,15.0,92,0.00,,,0.06,Wunderground v.1.15,2013-10-30 16:30:00,
2013-10-30 11:40:00,70.6,68.2,29.93,SE,140,13.0,13.0,92,0.00,,,0.07,Wunderground v.1.15,2013-10-30 16:40:00,
2013-10-30 11:45:00,70.5,68.1,29.93,SE,132,12.0,14.0,92,0.00,,,0.07,Wunderground v.1.15,2013-10-30 16:45:00,
2013-10-30 11:50:00,70.3,68.2,29.93,SSE,149,11.0,11.0,93,0.00,,,0.07,Wunderground v.1.15,2013-10-30 16:50:00,
2013-10-30 11:55:00,70.3,68.2,29.93,SE,127,10.0,11.0,93,0.00,,,0.07,Wunderground v.1.15,2013-10-30 16:55:00,
2013-10-30 12:00:00,70.2,68.1,29.92,SE,137,10.0,12.0,93,0.00,,,0.08,Wunderground v.1.15,2013-10-30 17:00:00,
2013-10-30 12:10:00,70.0,67.9,29.93,SSE,167,11.0,12.0,93,0.00,,,0.08,Wunderground v.1.15,2013-10-30 17:10:00,
2013-10-30 12:15:00,69.9,67.8,29.93,SE,136,11.0,12.0,93,0.00,,,0.08,Wunderground v.1.15,2013-10-30 17:15:00,
2013-10-30 12:25:00,69.7,67.6,29.93,SE,136,11.0,13.0,93,0.00,,,0.08,Wunderground v.1.15,2013-10-30 17:25:00,
2013-10-30 12:30:00,69.5,67.4,29.93,SE,144,13.0,17.0,93,0.00,,,0.08,Wunderground v.1.15,2013-10-30 17:30:00,
2013-10-30 12:35:00,69.2,67.1,29.93,SE,128,13.0,17.0,93,0.00,,,0.08,Wunderground v.1.15,2013-10-30 17:35:00,
2013-10-30 12:40:00,69.0,66.9,29.92,ESE,114,11.0,11.0,93,0.00,,,0.09,Wunderground v.1.15,2013-10-30 17:40:00,
2013-10-30 12:50:00,68.4,66.3,29.92,SE,141,12.0,15.0,93,0.00,,,0.09,Wunderground v.1.15,2013-10-30 17:50:00,
2013-10-30 12:55:00,68.3,66.2,29.92,SSE,156,11.0,15.0,93,0.00,,,0.09,Wunderground v.1.15,2013-10-30 17:55:00,
2013-10-30 13:00:00,68.0,65.9,29.92,ESE,111,10.0,10.0,93,0.00,,,0.09,Wunderground v.1.15,2013-10-30 18:00:00,
2013-10-30 13:10:00,67.8,65.7,29.91,SE,132,12.0,12.0,93,0.00,,,0.09,Wunderground v.1.15,2013-10-30 18:10:00,
2013-10-30 13:15:00,67.9,66.1,29.91,SSE,147,10.0,12.0,94,0.00,,,0.09,Wunderground v.1.15,2013-10-30 18:15:00,
2013-10-30 13:20:00,68.1,66.3,29.90,SSE,151,10.0,16.0,94,0.00,,,0.09,Wunderground v.1.15,2013-10-30 18:20:00,
2013-10-30 13:25:00,68.1,66.3,29.90,SSE,157,12.0,16.0,94,0.00,,,0.09,Wunderground v.1.15,2013-10-30 18:25:00,
2013-10-30 13:35:00,68.2,66.4,29.90,SSE,155,11.0,12.0,94,0.00,,,0.10,Wunderground v.1.15,2013-10-30 18:35:00,
2013-10-30 13:40:00,68.1,66.3,29.90,SE,136,12.0,17.0,94,0.00,,,0.10,Wunderground v.1.15,2013-10-30 18:40:00,
2013-10-30 13:45:00,68.1,66.3,29.90,South,173,13.0,17.0,94,0.00,,,0.10,Wunderground v.1.15,2013-10-30 18:45:00,
2013-10-30 13:50:00,68.1,66.3,29.89,SSE,153,11.0,11.0,94,0.00,,,0.10,Wunderground v.1.15,2013-10-30 18:50:00,
2013-10-30 13:55:00,68.1,66.3,29.89,SE,140,10.0,12.0,94,0.00,,,0.10,Wunderground v.1.15,2013-10-30 18:55:00,
2013-10-30 14:00:00,68.1,66.3,29.89,SSE,160,9.0,14.0,94,0.00,,,0.10,Wunderground v.1.15,2013-10-30 19:00:00,
2013-10-30 14:10:00,68.1,66.3,29.88,SSE,165,12.0,16.0,94,0.00,,,0.10,Wunderground v.1.15,2013-10-30 19:10:00,
2013-10-30 14:20:00,68.2,66.4,29.88,SE,127,11.0,13.0,94,0.00,,,0.10,Wunderground v.1.15,2013-10-30 19:20:00,
2013-10-30 14:25:00,68.2,66.4,29.87,SSE,151,10.0,13.0,94,0.00,,,0.10,Wunderground v.1.15,2013-10-30 19:25:00,
2013-10-30 14:30:00,68.2,66.4,29.87,SE,128,9.0,13.0,94,0.00,,,0.10,Wunderground v.1.15,2013-10-30 19:30:00,
2013-10-30 14:35:00,68.2,66.4,29.87,ESE,121,8.0,13.0,94,0.00,,,0.10,Wunderground v.1.15,2013-10-30 19:35:00,
2013-10-30 14:40:00,68.2,66.4,29.87,SE,146,9.0,9.0,94,0.00,,,0.10,Wunderground v.1.15,2013-10-30 19:40:00,
2013-10-30 14:50:00,68.1,66.3,29.87,SE,144,10.0,10.0,94,0.00,,,0.10,Wunderground v.1.15,2013-10-30 19:50:00,
2013-10-30 14:55:00,68.2,66.4,29.87,SSE,150,9.0,10.0,94,0.00,,,0.10,Wunderground v.1.15,2013-10-30 19:55:00,
2013-10-30 15:00:00,68.4,66.3,29.87,SE,134,8.0,8.0,93,0.00,,,0.10,Wunderground v.1.15,2013-10-30 20:00:00,
2013-10-30 15:10:00,68.9,67.1,29.85,SE,127,7.0,7.0,94,0.00,,,0.10,Wunderground v.1.15,2013-10-30 20:10:00,
2013-10-30 15:15:00,69.0,66.9,29.85,SE,134,10.0,10.0,93,0.00,,,0.10,Wunderground v.1.15,2013-10-30 20:15:00,
2013-10-30 15:20:00,69.2,67.1,29.85,SE,124,10.0,10.0,93,0.00,,,0.10,Wunderground v.1.15,2013-10-30 20:20:00,
2013-10-30 15:30:00,69.2,67.1,29.85,SE,137,7.0,7.0,93,0.00,,,0.10,Wunderground v.1.15,2013-10-30 20:30:00,
2013-10-30 15:35:00,69.2,66.8,29.84,SE,144,8.0,14.0,92,0.00,,,0.10,Wunderground v.1.15,2013-10-30 20:35:00,
2013-10-30 15:40:00,69.1,66.7,29.84,SE,141,8.0,8.0,92,0.00,,,0.10,Wunderground v.1.15,2013-10-30 20:40:00,
2013-10-30 15:45:00,69.2,66.8,29.84,SE,142,7.0,8.0,92,0.00,,,0.10,Wunderground v.1.15,2013-10-30 20:45:00,
2013-10-30 15:55:00,69.5,67.4,29.83,SE,134,3.0,6.0,93,0.00,,,0.10,Wunderground v.1.15,2013-10-30 20:55:00,
2013-10-30 16:00:00,69.7,67.6,29.83,SE,135,2.0,9.0,93,0.00,,,0.10,Wunderground v.1.15,2013-10-30 21:00:00,
2013-10-30 16:10:00,69.7,67.3,29.83,ESE,117,5.0,11.0,92,0.00,,,0.10,Wunderground v.1.15,2013-10-30 21:10:00,
2013-10-30 16:15:00,69.8,67.4,29.82,SE,134,7.0,11.0,92,0.00,,,0.10,Wunderground v.1.15,2013-10-30 21:15:00,
2013-10-30 16:20:00,69.8,67.4,29.82,SE,128,7.0,7.0,92,0.00,,,0.10,Wunderground v.1.15,2013-10-30 21:20:00,
2013-10-30 16:25:00,70.1,67.7,29.82,ESE,121,6.0,14.0,92,0.00,,,0.10,Wunderground v.1.15,2013-10-30 21:25:00,
2013-10-30 16:30:00,70.2,67.8,29.82,ESE,123,5.0,5.0,92,0.00,,,0.10,Wunderground v.1.15,2013-10-30 21:30:00,
2013-10-30 16:40:00,70.4,68.0,29.82,ESE,107,5.0,5.0,92,0.00,,,0.10,Wunderground v.1.15,2013-10-30 21:40:00,
2013-10-30 16:45:00,70.4,67.6,29.82,ESE,120,5.0,11.0,91,0.00,,,0.10,Wunderground v.1.15,2013-10-30 21:45:00,
2013-10-30 16:50:00,70.2,67.4,29.82,ESE,103,5.0,5.0,91,0.00,,,0.10,Wunderground v.1.15,2013-10-30 21:50:00,
2013-10-30 16:55:00,70.1,67.3,29.82,ESE,113,5.0,9.0,91,0.00,,,0.10,Wunderground v.1.15,2013-10-30 21:55:00,
2013-10-30 17:00:00,69.9,67.2,29.82,ESE,111,5.0,5.0,91,0.00,,,0.10,Wunderground v.1.15,2013-10-30 22:00:00,
2013-10-30 17:10:00,69.7,67.3,29.82,East,101,5.0,5.0,92,0.00,,,0.10,Wunderground v.1.15,2013-10-30 22:10:00,
2013-10-30 17:15:00,69.6,67.2,29.83,East,101,6.0,6.0,92,0.00,,,0.10,Wunderground v.1.15,2013-10-30 22:15:00,
2013-10-30 17:25:00,69.3,66.9,29.83,SE,134,7.0,14.0,92,0.00,,,0.10,Wunderground v.1.15,2013-10-30 22:25:00,
2013-10-30 17:30:00,69.0,66.6,29.83,SE,132,8.0,8.0,92,0.00,,,0.10,Wunderground v.1.15,2013-10-30 22:30:00,
2013-10-30 17:35:00,68.8,66.4,29.83,SE,124,8.0,8.0,92,0.00,,,0.10,Wunderground v.1.15,2013-10-30 22:35:00,
2013-10-30 17:40:00,68.7,66.6,29.82,ESE,114,8.0,11.0,93,0.00,,,0.10,Wunderground v.1.15,2013-10-30 22:40:00,
2013-10-30 17:45:00,68.5,66.4,29.82,ESE,111,7.0,11.0,93,0.00,,,0.10,Wunderground v.1.15,2013-10-30 22:45:00,
2013-10-30 17:55:00,68.2,66.1,29.83,ESE,123,7.0,11.0,93,0.00,,,0.10,Wunderground v.1.15,2013-10-30 22:55:00,
2013-10-30 18:00:00,68.1,66.0,29.83,ESE,122,8.0,8.0,93,0.00,,,0.10,Wunderground v.1.15,2013-10-30 23:00:00,
2013-10-30 18:10:00,67.9,65.8,29.82,ESE,121,8.0,8.0,93,0.00,,,0.10,Wunderground v.1.15,2013-10-30 23:10:00,
2013-10-30 18:15:00,67.8,65.7,29.82,SE,136,8.0,8.0,93,0.00,,,0.10,Wunderground v.1.15,2013-10-30 23:15:00,
2013-10-30 18:20:00,67.7,65.6,29.82,ESE,111,6.0,7.0,93,0.00,,,0.10,Wunderground v.1.15,2013-10-30 23:20:00,
2013-10-30 18:25:00,67.5,65.4,29.82,SE,134,7.0,7.0,93,0.00,,,0.10,Wunderground v.1.15,2013-10-30 23:25:00,
2013-10-30 18:35:00,67.3,65.2,29.82,SE,128,5.0,12.0,93,0.00,,,0.10,Wunderground v.1.15,2013-10-30 23:35:00,
2013-10-30 18:40:00,67.2,65.1,29.81,ESE,115,7.0,7.0,93,0.00,,,0.10,Wunderground v.1.15,2013-10-30 23:40:00,
2013-10-30 18:45:00,67.1,65.0,29.81,SE,127,8.0,11.0,93,0.00,,,0.10,Wunderground v.1.15,2013-10-30 23:45:00,
2013-10-30 18:50:00,67.1,65.0,29.81,ESE,122,8.0,11.0,93,0.00,,,0.10,Wunderground v.1.15,2013-10-30 23:50:00,
2013-10-30 18:55:00,67.0,64.9,29.81,ESE,118,9.0,11.0,93,0.00,,,0.10,Wunderground v.1.15,2013-10-30 23:55:00,
2013-10-30 19:00:00,67.0,64.9,29.80,ESE,113,8.0,11.0,93,0.00,,,0.10,Wunderground v.1.15,2013-10-31 00:00:00,
2013-10-30 19:10:00,66.9,65.1,29.81,ESE,118,5.0,8.0,94,0.00,,,0.10,Wunderground v.1.15,2013-10-31 00:10:00,
2013-10-30 19:20:00,66.8,65.0,29.82,SE,126,5.0,6.0,94,0.00,,,0.10,Wunderground v.1.15,2013-10-31 00:20:00,
2013-10-30 19:25:00,66.8,65.0,29.83,SE,128,4.0,6.0,94,0.00,,,0.10,Wunderground v.1.15,2013-10-31 00:25:00,
2013-10-30 19:30:00,66.8,65.0,29.83,ESE,117,4.0,7.0,94,0.00,,,0.10,Wunderground v.1.15,2013-10-31 00:30:00,
2013-10-30 19:35:00,66.7,64.9,29.83,ESE,117,6.0,8.0,94,0.00,,,0.10,Wunderground v.1.15,2013-10-31 00:35:00,
2013-10-30 19:40:00,66.7,64.9,29.84,ESE,107,6.0,12.0,94,0.00,,,0.10,Wunderground v.1.15,2013-10-31 00:40:00,
2013-10-30 19:50:00,66.6,64.8,29.84,SE,125,8.0,13.0,94,0.00,,,0.10,Wunderground v.1.15,2013-10-31 00:50:00,
2013-10-30 19:55:00,66.5,64.7,29.85,SE,137,7.0,13.0,94,0.00,,,0.10,Wunderground v.1.15,2013-10-31 00:55:00,
2013-10-30 20:00:00,66.4,64.6,29.85,SE,130,6.0,11.0,94,0.00,,,0.10,Wunderground v.1.15,2013-10-31 01:00:00,
2013-10-30 20:10:00,66.3,64.5,29.83,ESE,118,6.0,6.0,94,0.00,,,0.10,Wunderground v.1.15,2013-10-31 01:10:00,
2013-10-30 20:15:00,66.3,64.5,29.83,ESE,123,5.0,6.0,94,0.00,,,0.10,Wunderground v.1.15,2013-10-31 01:15:00,
2013-10-30 20:20:00,66.3,64.5,29.84,ESE,112,4.0,7.0,94,0.00,,,0.10,Wunderground v.1.15,2013-10-31 01:20:00,
2013-10-30 20:30:00,66.3,64.5,29.83,ESE,121,3.0,3.0,94,0.00,,,0.10,Wunderground v.1.15,2013-10-31 01:30:00,
2013-10-30 20:35:00,66.3,64.5,29.83,ESE,121,2.0,3.0,94,0.00,,,0.10,Wunderground v.1.15,2013-10-31 01:35:00,
2013-10-30 20:40:00,66.3,64.5,29.83,ESE,122,2.0,2.0,94,0.00,,,0.10,Wunderground v.1.15,2013-10-31 01:40:00,
2013-10-30 20:45:00,66.3,64.5,29.83,ESE,122,1.0,2.0,94,0.00,,,0.10,Wunderground v.1.15,2013-10-31 01:45:00,
2013-10-30 20:50:00,66.3,64.5,29.83,ESE,121,3.0,3.0,94,0.00,,,0.10,Wunderground v.1.15,2013-10-31 01:50:00,
2013-10-30 21:00:00,66.3,64.5,29.83,ESE,115,3.0,3.0,94,0.00,,,0.10,Wunderground v.1.15,2013-10-31 02:00:00,
2013-10-30 21:10:00,66.2,64.4,29.83,ESE,117,2.0,2.0,94,0.00,,,0.10,Wunderground v.1.15,2013-10-31 02:10:00,
2013-10-30 21:15:00,66.1,64.3,29.83,ESE,113,3.0,3.0,94,0.00,,,0.10,Wunderground v.1.15,2013-10-31 02:15:00,
2013-10-30 21:20:00,66.1,64.3,29.83,ESE,113,2.0,2.0,94,0.00,,,0.10,Wunderground v.1.15,2013-10-31 02:20:00,
2013-10-30 21:25:00,66.1,64.3,29.83,ESE,113,1.0,2.0,94,0.00,,,0.10,Wunderground v.1.15,2013-10-31 02:25:00,
2013-10-30 21:30:00,66.1,64.3,29.83,ESE,113,0.0,0.0,94,0.00,,,0.10,Wunderground v.1.15,2013-10-31 02:30:00,
2013-10-30 21:40:00,66.1,64.3,29.82,ESE,113,2.0,8.0,94,0.00,,,0.10,Wunderground v.1.15,2013-10-31 02:40:00,
2013-10-30 21:45:00,66.1,64.3,29.81,SE,138,5.0,11.0,94,0.00,,,0.10,Wunderground v.1.15,2013-10-31 02:45:00,
2013-10-30 21:50:00,66.0,64.2,29.81,SE,131,6.0,12.0,94,0.00,,,0.10,Wunderground v.1.15,2013-10-31 02:50:00,
2013-10-30 21:55:00,66.0,64.2,29.80,SE,124,7.0,12.0,94,0.00,,,0.10,Wunderground v.1.15,2013-10-31 02:55:00,
2013-10-30 22:00:00,66.0,64.2,29.80,ESE,121,8.0,8.0,94,0.00,,,0.10,Wunderground v.1.15,2013-10-31 03:00:00,
2013-10-30 22:10:00,66.0,64.2,29.81,SE,125,1.0,1.0,94,0.00,,,0.10,Wunderground v.1.15,2013-10-31 03:10:00,
2013-10-30 22:20:00,66.0,64.2,29.81,SE,125,0.0,0.0,94,0.00,,,0.10,Wunderground v.1.15,2013-10-31 03:20:00,
2013-10-30 22:25:00,66.0,64.2,29.80,SE,125,1.0,1.0,94,0.00,,,0.10,Wunderground v.1.15,2013-10-31 03:25:00,
2013-10-30 22:30:00,66.0,64.2,29.80,SE,127,3.0,3.0,94,0.00,,,0.10,Wunderground v.1.15,2013-10-31 03:30:00,
2013-10-30 22:35:00,66.0,64.2,29.80,SE,130,3.0,3.0,94,0.00,,,0.10,Wunderground v.1.15,2013-10-31 03:35:00,
2013-10-30 22:40:00,66.0,64.2,29.80,SE,132,2.0,2.0,94,0.00,,,0.10,Wunderground v.1.15,2013-10-31 03:40:00,
2013-10-30 22:50:00,66.1,64.6,29.78,SE,126,4.0,4.0,95,0.00,,,0.10,Wunderground v.1.15,2013-10-31 03:50:00,
2013-10-30 22:55:00,66.1,64.6,29.78,SE,136,4.0,9.0,95,0.00,,,0.10,Wunderground v.1.15,2013-10-31 03:55:00,
2013-10-30 23:00:00,66.1,64.6,29.78,SE,134,4.0,11.0,95,0.00,,,0.10,Wunderground v.1.15,2013-10-31 04:00:00,
2013-10-30 23:05:00,66.1,64.6,29.78,SE,135,5.0,11.0,95,0.00,,,0.10,Wunderground v.1.15,2013-10-31 04:05:00,
2013-10-30 23:10:00,66.1,64.6,29.78,SE,136,4.0,6.0,95,0.00,,,0.10,Wunderground v.1.15,2013-10-31 04:10:00,
2013-10-30 23:15:00,66.2,64.7,29.77,SE,135,2.0,6.0,95,0.00,,,0.10,Wunderground v.1.15,2013-10-31 04:15:00,
2013-10-30 23:25:00,66.2,64.7,29.78,SE,141,3.0,11.0,95,0.00,,,0.10,Wunderground v.1.15,2013-10-31 04:25:00,
2013-10-30 23:30:00,66.2,64.7,29.78,SE,141,1.0,8.0,95,0.00,,,0.10,Wunderground v.1.15,2013-10-31 04:30:00,
2013-10-30 23:35:00,66.3,64.8,29.77,SE,146,1.0,8.0,95,0.00,,,0.10,Wunderground v.1.15,2013-10-31 04:35:00,
2013-10-30 23:40:00,66.3,64.8,29.77,SE,146,1.0,1.0,95,0.00,,,0.10,Wunderground v.1.15,2013-10-31 04:40:00,
2013-10-30 23:45:00,66.4,64.9,29.77,SSE,152,1.0,1.0,95,0.00,,,0.10,Wunderground v.1.15,2013-10-31 04:45:00,
2013-10-30 23:55:00,66.5,65.0,29.77,SSE,153,2.0,8.0,95,0.00,,,0.10,Wunderground v.1.15,2013-10-31 04:55:00,